VIR12A KBOS-EGLL

Flight info

Callsign VIR12A
Flight time N/A
Altitude 37000
Route LBSTA8 LBSTA DCT ALLEX N431B ELSIR/M083F380 DCT 50N050W 52N040W 54N030W 55N020W DCT RESNO DCT NETKI/N0471F390 DCT BOFUM Q37 MALUD Q38 NUGRA
Aircraft A346/H-SDE2E3FGHIJ3J4J5M1RWXY/LB1D1

Departure

Time N/A
Airport Boston Logan International Airport (KBOS)

Arrival

Time 2026-05-04 16:08
Airport London Heathrow Airport (EGLL)
Time Latitude Longitude Altitude Speed Heading
2026-05-04 15:17 53.84993 -7.01452 39067 ft 484 kts 107°
2026-05-04 15:17 53.81755 -6.85227 39070 ft 484 kts 107°
2026-05-04 15:18 53.79584 -6.74428 39071 ft 484 kts 107°
2026-05-04 15:19 53.76321 -6.58299 39067 ft 482 kts 107°
2026-05-04 15:19 53.73027 -6.42150 39073 ft 482 kts 107°
2026-05-04 15:20 53.70826 -6.31430 39069 ft 482 kts 107°
2026-05-04 15:20 53.68629 -6.20788 39080 ft 483 kts 108°
2026-05-04 15:21 53.66409 -6.10090 39073 ft 482 kts 108°
2026-05-04 15:22 53.63060 -5.94066 39075 ft 483 kts 108°
2026-05-04 15:22 53.59689 -5.78060 39072 ft 483 kts 108°
2026-05-04 15:23 53.57429 -5.67407 39074 ft 482 kts 108°
2026-05-04 15:23 53.55390 -5.56661 39073 ft 481 kts 103°
2026-05-04 15:24 53.53288 -5.34593 39073 ft 478 kts 92°
2026-05-04 15:25 53.53021 -5.23398 39073 ft 478 kts 91°
2026-05-04 15:26 53.52588 -5.06596 39067 ft 479 kts 92°
2026-05-04 15:26 53.52036 -4.89809 39065 ft 479 kts 92°
2026-05-04 15:27 53.51478 -4.73017 39059 ft 479 kts 92°
2026-05-04 15:28 53.50904 -4.56298 39060 ft 479 kts 92°
2026-05-04 15:29 53.50301 -4.39483 39059 ft 480 kts 92°
2026-05-04 15:30 53.48506 -4.00268 39060 ft 481 kts 98°
2026-05-04 15:31 53.46100 -3.83945 39054 ft 482 kts 108°
2026-05-04 15:32 53.40344 -3.57449 39056 ft 483 kts 114°
2026-05-04 15:34 53.33016 -3.31968 39053 ft 484 kts 115°
2026-05-04 15:34 53.28597 -3.16774 39046 ft 484 kts 115°
2026-05-04 15:35 53.24172 -3.01637 39042 ft 485 kts 116°
2026-05-04 15:36 53.19697 -2.86435 39043 ft 487 kts 116°
2026-05-04 15:36 53.16680 -2.76244 39051 ft 488 kts 116°
2026-05-04 15:37 53.13661 -2.66082 39048 ft 488 kts 116°
2026-05-04 15:37 53.10636 -2.55945 39050 ft 488 kts 116°
2026-05-04 15:38 53.07597 -2.45805 39050 ft 489 kts 117°
2026-05-04 15:38 53.04000 -2.36220 38968 ft 485 kts 127°
2026-05-04 15:39 53.01873 -2.31923 38203 ft 479 kts 133°
2026-05-04 15:39 52.99528 -2.27999 36999 ft 477 kts 137°
2026-05-04 15:39 52.94282 -2.21324 34704 ft 474 kts 145°
2026-05-04 15:40 52.91504 -2.18419 33451 ft 471 kts 145°
2026-05-04 15:40 52.88721 -2.15526 32014 ft 471 kts 145°
2026-05-04 15:40 52.85946 -2.12638 30516 ft 473 kts 144°
2026-05-04 15:40 52.83175 -2.09753 29496 ft 463 kts 144°
2026-05-04 15:41 52.80452 -2.06913 29020 ft 463 kts 144°
2026-05-04 15:41 52.77722 -2.04066 28400 ft 464 kts 145°
2026-05-04 15:41 52.75015 -2.01247 27737 ft 464 kts 145°
2026-05-04 15:41 52.72304 -1.98401 27101 ft 460 kts 148°
2026-05-04 15:42 52.69597 -1.95587 26740 ft 459 kts 148°
2026-05-04 15:42 52.66894 -1.92807 26198 ft 456 kts 148°
2026-05-04 15:42 52.64221 -1.90061 25709 ft 451 kts 148°
2026-05-04 15:42 52.61575 -1.87342 25244 ft 446 kts 149°
2026-05-04 15:43 52.58952 -1.84647 24787 ft 441 kts 149°
2026-05-04 15:43 52.56362 -1.81986 24332 ft 437 kts 149°
2026-05-04 15:43 52.53792 -1.79348 23895 ft 433 kts 149°
2026-05-04 15:43 52.51247 -1.76738 23408 ft 429 kts 149°
2026-05-04 15:44 52.48725 -1.74158 22906 ft 425 kts 149°
2026-05-04 15:44 52.46236 -1.71612 22474 ft 419 kts 149°
2026-05-04 15:44 52.43792 -1.69116 22041 ft 417 kts 149°
2026-05-04 15:44 52.41336 -1.66610 21586 ft 414 kts 149°
2026-05-04 15:45 52.38899 -1.64126 21122 ft 411 kts 149°
2026-05-04 15:45 52.36491 -1.61673 20851 ft 402 kts 149°
2026-05-04 15:45 52.34158 -1.59300 20737 ft 388 kts 149°
2026-05-04 15:45 52.31897 -1.57002 20602 ft 375 kts 149°
2026-05-04 15:46 52.29714 -1.54787 20469 ft 363 kts 149°
2026-05-04 15:46 52.27598 -1.52645 20356 ft 351 kts 149°
2026-05-04 15:46 52.25551 -1.50572 20173 ft 341 kts 149°
2026-05-04 15:46 52.23575 -1.48571 20098 ft 328 kts 149°
2026-05-04 15:47 52.21724 -1.46520 20037 ft 315 kts 145°
2026-05-04 15:47 52.20032 -1.44366 20037 ft 302 kts 142°
2026-05-04 15:47 52.18423 -1.42125 20046 ft 315 kts 141°
2026-05-04 15:47 52.16718 -1.39749 19961 ft 326 kts 141°
2026-05-04 15:48 52.15010 -1.37364 19587 ft 326 kts 141°
2026-05-04 15:48 52.13271 -1.34938 19245 ft 324 kts 141°
2026-05-04 15:48 52.09891 -1.30231 18530 ft 320 kts 141°
2026-05-04 15:49 52.08203 -1.27884 18146 ft 318 kts 141°
2026-05-04 15:49 52.06523 -1.25550 17743 ft 317 kts 141°
2026-05-04 15:49 52.04847 -1.23221 17230 ft 317 kts 141°
2026-05-04 15:49 52.03177 -1.20904 16928 ft 314 kts 141°
2026-05-04 15:50 52.01519 -1.18611 16568 ft 312 kts 141°
2026-05-04 15:50 51.99871 -1.16330 16212 ft 310 kts 141°
2026-05-04 15:50 51.98226 -1.14054 15844 ft 308 kts 141°
2026-05-04 15:50 51.96580 -1.11790 15407 ft 308 kts 141°
2026-05-04 15:51 51.94940 -1.09530 15001 ft 309 kts 141°
2026-05-04 15:51 51.93312 -1.07275 14700 ft 306 kts 142°
2026-05-04 15:51 51.92238 -1.05793 14476 ft 305 kts 142°
2026-05-04 15:51 51.90620 -1.03575 14110 ft 304 kts 142°
2026-05-04 15:52 51.89004 -1.01358 13709 ft 304 kts 142°
2026-05-04 15:52 51.86877 -0.98432 13196 ft 302 kts 142°
2026-05-04 15:52 51.85372 -0.96063 12713 ft 304 kts 130°
2026-05-04 15:52 51.84586 -0.94118 12432 ft 306 kts 121°
2026-05-04 15:53 51.83625 -0.91068 12153 ft 301 kts 117°
2026-05-04 15:53 51.82733 -0.88075 11878 ft 297 kts 117°
2026-05-04 15:53 51.81840 -0.85080 11610 ft 293 kts 117°
2026-05-04 15:53 51.80958 -0.82134 11244 ft 289 kts 117°
2026-05-04 15:54 51.80081 -0.79240 10888 ft 283 kts 118°
2026-05-04 15:54 51.79218 -0.76400 10539 ft 279 kts 118°
2026-05-04 15:54 51.78363 -0.73614 10205 ft 274 kts 118°
2026-05-04 15:54 51.77518 -0.70869 9867 ft 270 kts 118°
2026-05-04 15:55 51.76684 -0.68166 9413 ft 269 kts 118°
2026-05-04 15:55 51.75846 -0.65445 8887 ft 271 kts 118°
2026-05-04 15:55 51.74994 -0.62687 8366 ft 273 kts 119°
2026-05-04 15:55 51.74141 -0.59931 7862 ft 275 kts 119°
2026-05-04 15:56 51.73283 -0.57162 7374 ft 276 kts 119°
2026-05-04 15:56 51.72388 -0.54417 6876 ft 277 kts 120°
2026-05-04 15:56 51.71490 -0.51693 6538 ft 270 kts 120°
2026-05-04 15:56 51.70633 -0.49075 6263 ft 256 kts 119°
2026-05-04 15:57 51.69819 -0.46595 6001 ft 243 kts 120°
2026-05-04 15:57 51.69050 -0.44242 5737 ft 239 kts 119°
2026-05-04 15:57 51.68268 -0.41892 5479 ft 237 kts 119°
2026-05-04 15:57 51.67474 -0.39544 5268 ft 237 kts 119°
2026-05-04 15:58 51.66672 -0.37230 5022 ft 236 kts 120°
2026-05-04 15:58 51.65850 -0.34941 4757 ft 234 kts 120°
2026-05-04 15:58 51.65024 -0.32682 4496 ft 233 kts 120°
2026-05-04 15:58 51.64186 -0.30424 4239 ft 233 kts 120°
2026-05-04 15:59 51.63345 -0.28196 3969 ft 232 kts 120°
2026-05-04 15:59 51.62513 -0.26022 3717 ft 231 kts 120°
2026-05-04 15:59 51.61649 -0.23801 3487 ft 230 kts 121°
2026-05-04 15:59 51.60795 -0.21615 3227 ft 229 kts 121°
2026-05-04 16:00 51.59941 -0.19461 3037 ft 226 kts 120°
2026-05-04 16:00 51.59072 -0.17325 3035 ft 229 kts 121°
2026-05-04 16:00 51.58275 -0.15106 3023 ft 229 kts 113°
2026-05-04 16:00 51.57603 -0.12804 3016 ft 222 kts 111°
2026-05-04 16:01 51.56906 -0.10672 3006 ft 219 kts 130°
2026-05-04 16:01 51.55653 -0.09270 3022 ft 223 kts 156°
2026-05-04 16:01 51.54177 -0.08463 3022 ft 224 kts 162°
2026-05-04 16:01 51.52673 -0.07800 2984 ft 223 kts 163°
2026-05-04 16:02 51.51172 -0.07167 2966 ft 224 kts 163°
2026-05-04 16:02 51.49654 -0.06621 2944 ft 223 kts 177°
2026-05-04 16:02 51.47086 -0.08759 2931 ft 202 kts 242°
2026-05-04 16:03 51.46619 -0.10801 2962 ft 193 kts 263°
2026-05-04 16:03 51.46510 -0.12936 2996 ft 191 kts 272°
2026-05-04 16:03 51.46551 -0.14968 3029 ft 190 kts 274°
2026-05-04 16:04 51.46615 -0.17965 2998 ft 192 kts 273°
2026-05-04 16:04 51.46626 -0.20108 2951 ft 182 kts 272°
2026-05-04 16:05 51.46618 -0.22045 2763 ft 172 kts 271°
2026-05-04 16:05 51.46604 -0.23944 2547 ft 169 kts 271°
2026-05-04 16:05 51.46572 -0.27618 2055 ft 156 kts 272°
2026-05-04 16:06 51.46560 -0.29355 1844 ft 156 kts 272°
2026-05-04 16:06 51.46535 -0.34008 1314 ft 154 kts 272°
2026-05-04 16:07 51.46523 -0.36298 1035 ft 155 kts 272°
2026-05-04 16:07 51.46502 -0.41008 412 ft 153 kts 273°
2026-05-04 16:08 51.46497 -0.42710 221 ft 151 kts 274°
2026-05-04 16:08 51.46486 -0.46403 100 ft 47 kts 272°
2026-05-04 16:09 51.46596 -0.46850 97 ft 4 kts 332°
2026-05-04 16:09 51.46597 -0.46851 97 ft 0 kts 332°
2026-05-04 16:10 51.46611 -0.46855 95 ft 4 kts 353°
2026-05-04 16:11 51.46818 -0.46862 97 ft 17 kts 360°
2026-05-04 16:11 51.46949 -0.46862 97 ft 18 kts
2026-05-04 16:12 51.47237 -0.46773 96 ft 9 kts 75°
2026-05-04 16:12 51.47179 -0.46349 97 ft 8 kts 143°
2026-05-04 16:13 51.47123 -0.46354 98 ft 6 kts 236°
2026-05-04 16:13 51.47101 -0.46405 97 ft 1 kts 234°
2026-05-04 16:14 51.47100 -0.46408 97 ft 0 kts 235°